,,Stat6,,Stat2,,Stat8,,Stat9,,Stat10,,Wind1,,Wind1,
time,status,PA1M_AVG,status,PR1M_SUM,status,RH1M_AVG,status,SR1M_AVG,status,TA1M_AVG,status,W1dAve1m,status,W1sAve1m,
2004-04-20, 00:00:00,VALID,918.102,VALID,0,VALID,97.1684,VALID,-0.0849042,VALID,20.3976,VALID,72,VALID,1.17533,
2004-04-20, 00:01:00,VALID,918.08,VALID,0,VALID,97.7915,VALID,-0.0339617,VALID,20.4296,VALID,94,VALID,1.33441,
2004-04-20, 00:02:00,VALID,918.058,VALID,0,VALID,97.7304,VALID,-0.0339617,VALID,20.5079,VALID,103,VALID,1.4008,
2004-04-20, 00:03:00,VALID,918.029,VALID,0,VALID,97.2472,VALID,-0.0679233,VALID,20.5944,VALID,104,VALID,1.2681,
2004-04-20, 00:04:00,VALID,918,VALID,0,VALID,96.6636,VALID,-0.0169808,VALID,20.6557,VALID,97,VALID,1.09821,
2004-04-20, 00:05:00,VALID,917.987,VALID,0,VALID,96.5466,VALID,0,VALID,20.6883,VALID,101,VALID,1.33854,
2004-04-20, 00:06:00,VALID,917.968,VALID,0,VALID,96.2579,VALID,-0.0339617,VALID,20.7688,VALID,108,VALID,1.16127,
2004-04-20, 00:07:00,VALID,917.952,VALID,0,VALID,95.6132,VALID,0,VALID,20.8399,VALID,97,VALID,1.06726,
2004-04-20, 00:08:00,VALID,917.946,VALID,0,VALID,94.7956,VALID,-0.0169808,VALID,20.8687,VALID,74,VALID,1.09157,
2004-04-20, 00:09:00,VALID,917.923,VALID,0,VALID,95.1593,VALID,-0.0169808,VALID,20.8552,VALID,101,VALID,1.19295,
2004-04-20, 00:10:00,VALID,917.904,VALID,0,VALID,95.088,VALID,-0.0169808,VALID,20.9335,VALID,121,VALID,1.26781,
2004-04-20, 00:11:00,VALID,917.876,VALID,0,VALID,94.5235,VALID,-0.0339617,VALID,20.9395,VALID,127,VALID,1.34261,
2004-04-20, 00:12:00,VALID,917.856,VALID,0,VALID,94.3976,VALID,-0.0169808,VALID,20.8754,VALID,119,VALID,1.44989,
2004-04-20, 00:13:00,VALID,917.83,VALID,0,VALID,95.0156,VALID,0,VALID,20.849,VALID,120,VALID,1.50127,
2004-04-20, 00:14:00,VALID,917.815,VALID,0,VALID,94.7727,VALID,0,VALID,20.8851,VALID,127,VALID,1.36589,
2004-04-20, 00:15:00,VALID,917.79,VALID,0,VALID,94.4891,VALID,0,VALID,20.9039,VALID,119,VALID,1.38352,
2004-04-20, 00:16:00,VALID,917.8,VALID,0,VALID,94.3098,VALID,-0.0169808,VALID,20.9142,VALID,89,VALID,0.966751,
2004-04-20, 00:17:00,VALID,917.79,VALID,0,VALID,94.526,VALID,-0.0169808,VALID,20.8878,VALID,79,VALID,1.10756,
2004-04-20, 00:18:00,VALID,917.8,VALID,0,VALID,94.9545,VALID,0,VALID,20.9295,VALID,83,VALID,1.34684,
2004-04-20, 00:19:00,VALID,917.796,VALID,0,VALID,93.8737,VALID,0,VALID,20.9912,VALID,107,VALID,1.20739,
2004-04-20, 00:20:00,VALID,917.806,VALID,0,VALID,94.1102,VALID,-0.0339617,VALID,20.9562,VALID,98,VALID,1.10103,
2004-04-20, 00:21:00,VALID,917.802,VALID,0,VALID,94.1318,VALID,-0.0169808,VALID,20.8856,VALID,125,VALID,1.02983,
2004-04-20, 00:22:00,VALID,917.785,VALID,0,VALID,94.5769,VALID,-0.0169808,VALID,20.7427,VALID,128,VALID,1.24637,
2004-04-20, 00:23:00,VALID,917.777,VALID,0,VALID,95.13,VALID,-0.0339617,VALID,20.6035,VALID,124,VALID,1.09275,
2004-04-20, 00:24:00,VALID,917.761,VALID,0,VALID,96.1931,VALID,-0.0339617,VALID,20.4907,VALID,106,VALID,1.18537,
2004-04-20, 00:25:00,VALID,917.742,VALID,0,VALID,96.736,VALID,0,VALID,20.4361,VALID,115,VALID,0.969113,
2004-04-20, 00:26:00,VALID,917.72,VALID,0,VALID,96.998,VALID,-0.0339617,VALID,20.4103,VALID,125,VALID,0.977095,
2004-04-20, 00:27:00,VALID,917.688,VALID,0,VALID,97.0196,VALID,-0.0169808,VALID,20.3715,VALID,114,VALID,0.906613,
2004-04-20, 00:28:00,VALID,917.66,VALID,0,VALID,97.4291,VALID,-0.0169808,VALID,20.3521,VALID,96,VALID,1.19513,
2004-04-20, 00:29:00,VALID,917.63,VALID,0,VALID,97.527,VALID,-0.0339617,VALID,20.3971,VALID,95,VALID,1.356,
2004-04-20, 00:30:00,VALID,917.625,VALID,0,VALID,97.0209,VALID,-0.0169808,VALID,20.4977,VALID,89,VALID,1.46261,
2004-04-20, 00:31:00,VALID,917.6,VALID,0,VALID,96.4957,VALID,0,VALID,20.5911,VALID,91,VALID,1.39517,
2004-04-20, 00:32:00,VALID,917.568,VALID,0,VALID,95.6832,VALID,-0.0339617,VALID,20.6942,VALID,93,VALID,1.11643,
2004-04-20, 00:33:00,VALID,917.547,VALID,0,VALID,95.4988,VALID,-0.0849042,VALID,20.7817,VALID,95,VALID,1.28516,
2004-04-20, 00:34:00,VALID,917.518,VALID,0,VALID,94.7396,VALID,-0.0679233,VALID,20.8463,VALID,81,VALID,0.987602,
2004-04-20, 00:35:00,VALID,917.498,VALID,0,VALID,94.8248,VALID,0.0339617,VALID,20.8571,VALID,98,VALID,1.56784,
2004-04-20, 00:36:00,VALID,917.474,VALID,0,VALID,94.5082,VALID,0.0169808,VALID,20.9715,VALID,110,VALID,1.66697,
2004-04-20, 00:37:00,VALID,917.469,VALID,0,VALID,93.6982,VALID,0,VALID,21.0622,VALID,95,VALID,1.10645,
2004-04-20, 00:38:00,VALID,917.467,VALID,0,VALID,92.6796,VALID,0.0169808,VALID,21.0359,VALID,65,VALID,1.29427,
2004-04-20, 00:39:00,VALID,917.466,VALID,0,VALID,93.4884,VALID,0.0169808,VALID,20.9198,VALID,76,VALID,1.43096,
2004-04-20, 00:40:00,VALID,917.456,VALID,0,VALID,94.3378,VALID,0,VALID,20.9231,VALID,94,VALID,1.59487,
2004-04-20, 00:41:00,VALID,917.431,VALID,0,VALID,93.9843,VALID,0.0169808,VALID,21.0305,VALID,119,VALID,1.51342,
2004-04-20, 00:42:00,VALID,917.423,VALID,0,VALID,93.3345,VALID,0,VALID,21.1228,VALID,100,VALID,1.4592,
2004-04-20, 00:43:00,VALID,917.417,VALID,0,VALID,92.7814,VALID,0,VALID,21.1387,VALID,72,VALID,1.60724,
2004-04-20, 00:44:00,VALID,917.414,VALID,0,VALID,92.8945,VALID,0.0509425,VALID,21.094,VALID,80,VALID,1.68203,
2004-04-20, 00:45:00,VALID,917.407,VALID,0,VALID,93.5926,VALID,0,VALID,21.0294,VALID,91,VALID,1.74983,
2004-04-20, 00:46:00,VALID,917.393,VALID,0,VALID,93.9182,VALID,0.0169808,VALID,20.9745,VALID,87,VALID,1.34514,
2004-04-20, 00:47:00,VALID,917.376,VALID,0,VALID,94.114,VALID,0,VALID,20.9101,VALID,107,VALID,1.02649,
2004-04-20, 00:48:00,VALID,917.355,VALID,0,VALID,94.4014,VALID,-0.0849042,VALID,20.8399,VALID,118,VALID,1.43786,
2004-04-20, 00:49:00,VALID,917.331,VALID,0,VALID,94.54,VALID,-0.0849042,VALID,20.7464,VALID,125,VALID,1.31545,
2004-04-20, 00:50:00,VALID,917.314,VALID,0,VALID,95.0168,VALID,-0.0509425,VALID,20.6364,VALID,127,VALID,0.998476,
2004-04-20, 00:51:00,VALID,917.31,VALID,0,VALID,95.2292,VALID,-0.0509425,VALID,20.533,VALID,121,VALID,1.02902,
2004-04-20, 00:52:00,VALID,917.295,VALID,0,VALID,95.6819,VALID,-0.0849042,VALID,20.4393,VALID,116,VALID,1.23073,
2004-04-20, 00:53:00,VALID,917.282,VALID,0,VALID,96.1435,VALID,-0.101885,VALID,20.3593,VALID,123,VALID,1.25223,
2004-04-20, 00:54:00,VALID,917.28,VALID,0,VALID,96.4423,VALID,-0.101885,VALID,20.3042,VALID,129,VALID,1.24764,
2004-04-20, 00:55:00,VALID,917.27,VALID,0,VALID,96.6483,VALID,-0.0509425,VALID,20.2783,VALID,129,VALID,1.36047,
2004-04-20, 00:56:00,VALID,917.29,VALID,0,VALID,96.7437,VALID,-0.0679233,VALID,20.2495,VALID,125,VALID,1.20677,
2004-04-20, 00:57:00,VALID,917.318,VALID,0,VALID,96.834,VALID,-0.0679233,VALID,20.1871,VALID,119,VALID,1.15867,
2004-04-20, 00:58:00,VALID,917.342,VALID,0,VALID,97.1391,VALID,-0.0509425,VALID,20.1653,VALID,123,VALID,1.16371,
2004-04-20, 00:59:00,VALID,917.35,VALID,0,VALID,97.4418,VALID,-0.0509425,VALID,20.1332,VALID,121,VALID,1.42076,
2004-04-20, 01:00:00,VALID,917.365,VALID,0,VALID,97.8385,VALID,-0.0849042,VALID,20.1427,VALID,126,VALID,1.42751,
2004-04-20, 01:01:00,VALID,917.367,VALID,0,VALID,97.897,VALID,-0.0339617,VALID,20.1613,VALID,121,VALID,1.08185,
2004-04-20, 01:02:00,VALID,917.349,VALID,0,VALID,97.7076,VALID,-0.0339617,VALID,20.1578,VALID,111,VALID,1.05124,
2004-04-20, 01:03:00,VALID,917.317,VALID,0,VALID,97.8538,VALID,0.0509425,VALID,20.1608,VALID,131,VALID,1.31481,
2004-04-20, 01:04:00,VALID,917.295,VALID,0,VALID,97.9148,VALID,0.0509425,VALID,20.1891,VALID,124,VALID,1.3107,
2004-04-20, 01:05:00,VALID,917.294,VALID,0,VALID,97.7648,VALID,0.0849042,VALID,20.1888,VALID,117,VALID,0.991122,
2004-04-20, 01:06:00,VALID,917.293,VALID,0,VALID,97.7622,VALID,0.0849042,VALID,20.205,VALID,115,VALID,0.841332,
2004-04-20, 01:07:00,VALID,917.297,VALID,0,VALID,97.8703,VALID,0.0679233,VALID,20.2211,VALID,115,VALID,0.958519,
2004-04-20, 01:08:00,VALID,917.309,VALID,0,VALID,97.8347,VALID,0.0509425,VALID,20.2835,VALID,117,VALID,1.23531,
2004-04-20, 01:09:00,VALID,917.317,VALID,0,VALID,97.5295,VALID,0.0679233,VALID,20.3479,VALID,124,VALID,1.18605,
2004-04-20, 01:10:00,VALID,917.323,VALID,0,VALID,97.115,VALID,0.0679233,VALID,20.3864,VALID,124,VALID,1.25911,
2004-04-20, 01:11:00,VALID,917.343,VALID,0,VALID,96.8836,VALID,0.0679233,VALID,20.4063,VALID,128,VALID,1.15923,
2004-04-20, 01:12:00,VALID,917.352,VALID,0,VALID,96.9014,VALID,0.0339617,VALID,20.4033,VALID,132,VALID,1.39844,
2004-04-20, 01:13:00,VALID,917.34,VALID,0,VALID,96.7945,VALID,0,VALID,20.4229,VALID,135,VALID,1.29097,
2004-04-20, 01:14:00,VALID,917.335,VALID,0,VALID,96.5733,VALID,0.0339617,VALID,20.4256,VALID,128,VALID,0.919837,
2004-04-20, 01:15:00,VALID,917.338,VALID,0,VALID,96.3787,VALID,0,VALID,20.3966,VALID,144,VALID,0.927837,
2004-04-20, 01:16:00,VALID,917.342,VALID,0,VALID,96.7297,VALID,0.0169808,VALID,20.3861,VALID,142,VALID,1.0732,
2004-04-20, 01:17:00,VALID,917.345,VALID,0,VALID,96.6534,VALID,0.0339617,VALID,20.4192,VALID,146,VALID,0.991122,
2004-04-20, 01:18:00,VALID,917.351,VALID,0,VALID,96.5618,VALID,0.0169808,VALID,20.4229,VALID,131,VALID,0.960756,
2004-04-20, 01:19:00,VALID,917.338,VALID,0,VALID,96.3482,VALID,0,VALID,20.4,VALID,121,VALID,0.520774,
2004-04-20, 01:20:00,VALID,917.329,VALID,0,VALID,96.4283,VALID,0,VALID,20.3812,VALID,129,VALID,0.669271,
2004-04-20, 01:21:00,VALID,917.331,VALID,0,VALID,96.6407,VALID,0,VALID,20.3613,VALID,132,VALID,0.740091,
2004-04-20, 01:22:00,VALID,917.335,VALID,0,VALID,96.5746,VALID,-0.0169808,VALID,20.3424,VALID,141,VALID,0.882622,
2004-04-20, 01:23:00,VALID,917.327,VALID,0,VALID,96.8581,VALID,0.0169808,VALID,20.3161,VALID,141,VALID,0.837391,
2004-04-20, 01:24:00,VALID,917.343,VALID,0,VALID,96.7399,VALID,0.0339617,VALID,20.2999,VALID,146,VALID,0.526811,
2004-04-20, 01:25:00,VALID,917.361,VALID,0,VALID,96.806,VALID,0,VALID,20.2805,VALID,143,VALID,0.806593,
2004-04-20, 01:26:00,VALID,917.366,VALID,0,VALID,97.0374,VALID,0,VALID,20.2838,VALID,141,VALID,0.90191,
2004-04-20, 01:27:00,VALID,917.372,VALID,0,VALID,96.9993,VALID,0.0169808,VALID,20.29,VALID,129,VALID,0.875781,
2004-04-20, 01:28:00,VALID,917.395,VALID,0,VALID,96.6877,VALID,0,VALID,20.2808,VALID,102,VALID,0.788881,
2004-04-20, 01:29:00,VALID,917.393,VALID,0,VALID,97.0234,VALID,0.0169808,VALID,20.2644,VALID,136,VALID,0.839939,
2004-04-20, 01:30:00,VALID,917.381,VALID,0,VALID,96.97,VALID,0.0169808,VALID,20.2706,VALID,132,VALID,0.853261,
2004-04-20, 01:31:00,VALID,917.372,VALID,0,VALID,96.8772,VALID,0,VALID,20.2657,VALID,138,VALID,0.817187,
2004-04-20, 01:32:00,VALID,917.353,VALID,0,VALID,97.2676,VALID,0.0339617,VALID,20.2547,VALID,138,VALID,1.0252,
2004-04-20, 01:33:00,VALID,917.339,VALID,0,VALID,97.1709,VALID,0.0169808,VALID,20.2684,VALID,123,VALID,0.632449,
2004-04-20, 01:34:00,VALID,917.332,VALID,0,VALID,97.1633,VALID,0.0169808,VALID,20.242,VALID,141,VALID,0.788504,
2004-04-20, 01:35:00,VALID,917.331,VALID,0,VALID,97.3591,VALID,0.0169808,VALID,20.2418,VALID,143,VALID,1.23095,
2004-04-20, 01:36:00,VALID,917.316,VALID,0,VALID,97.6402,VALID,0,VALID,20.245,VALID,147,VALID,1.41425,
2004-04-20, 01:37:00,VALID,917.315,VALID,0,VALID,97.8029,VALID,0,VALID,20.2711,VALID,144,VALID,1.19131,
2004-04-20, 01:38:00,VALID,917.297,VALID,0,VALID,97.5524,VALID,0,VALID,20.2749,VALID,117,VALID,0.580124,
2004-04-20, 01:39:00,VALID,917.299,VALID,0,VALID,97.4863,VALID,0,VALID,20.2388,VALID,98,VALID,0.890439,
2004-04-20, 01:40:00,VALID,917.28,VALID,0,VALID,97.7521,VALID,-0.0339617,VALID,20.2326,VALID,100,VALID,0.793501,
2004-04-20, 01:41:00,VALID,917.253,VALID,0,VALID,97.9733,VALID,0,VALID,20.2227,VALID,112,VALID,1.05549,
2004-04-20, 01:42:00,VALID,917.233,VALID,0,VALID,98.1335,VALID,0,VALID,20.242,VALID,133,VALID,0.980168,
2004-04-20, 01:43:00,VALID,917.203,VALID,0,VALID,98.0954,VALID,0,VALID,20.2418,VALID,132,VALID,0.876453,
2004-04-20, 01:44:00,VALID,917.195,VALID,0,VALID,97.925,VALID,-0.0169808,VALID,20.245,VALID,84,VALID,1.11682,
2004-04-20, 01:45:00,VALID,917.185,VALID,0,VALID,98.0572,VALID,0,VALID,20.2582,VALID,85,VALID,0.747796,
2004-04-20, 01:46:00,VALID,917.182,VALID,0,VALID,98.0509,VALID,0.0339617,VALID,20.2609,VALID,104,VALID,0.681445,
2004-04-20, 01:47:00,VALID,917.183,VALID,0,VALID,98.0382,VALID,-0.0169808,VALID,20.2741,VALID,84,VALID,0.950763,
2004-04-20, 01:48:00,VALID,917.167,VALID,0,VALID,98.2582,VALID,0,VALID,20.329,VALID,110,VALID,1.02166,
2004-04-20, 01:49:00,VALID,917.151,VALID,0,VALID,97.9415,VALID,0,VALID,20.3938,VALID,103,VALID,0.666903,
2004-04-20, 01:50:00,VALID,917.14,VALID,0,VALID,97.6783,VALID,0,VALID,20.4426,VALID,90,VALID,0.765092,
2004-04-20, 01:51:01,VALID,917.139,VALID,0,VALID,97.4914,VALID,0,VALID,20.4716,VALID,95,VALID,0.66806,
2004-04-20, 01:52:01,VALID,917.121,VALID,0,VALID,97.3032,VALID,0,VALID,20.4776,VALID,74,VALID,0.926829,
2004-04-20, 01:53:00,VALID,917.114,VALID,0,VALID,97.3121,VALID,0,VALID,20.5002,VALID,97,VALID,0.961682,
2004-04-20, 01:54:00,VALID,917.083,VALID,0,VALID,97.1582,VALID,0,VALID,20.5653,VALID,115,VALID,0.999628,
2004-04-20, 01:55:00,VALID,917.085,VALID,0,VALID,96.7742,VALID,0,VALID,20.6232,VALID,118,VALID,0.742898,
2004-04-20, 01:56:00,VALID,917.065,VALID,0,VALID,96.4919,VALID,-0.0169808,VALID,20.6687,VALID,118,VALID,0.904916,
2004-04-20, 01:57:01,VALID,917.072,VALID,0,VALID,96.2821,VALID,0.0169808,VALID,20.6975,VALID,118,VALID,0.788517,
2004-04-20, 01:58:00,VALID,917.073,VALID,0,VALID,96.1867,VALID,0,VALID,20.7072,VALID,117,VALID,0.682465,
2004-04-20, 01:59:00,VALID,917.073,VALID,0,VALID,96.1219,VALID,0,VALID,20.6972,VALID,119,VALID,0.55293,
2004-04-20, 02:00:00,VALID,917.081,VALID,0,VALID,96.0163,VALID,0.0339617,VALID,20.6845,VALID,118,VALID,0.584872,
2004-04-20, 02:01:00,VALID,917.088,VALID,0,VALID,96.0049,VALID,0,VALID,20.659,VALID,119,VALID,0.507813,
2004-04-20, 02:02:01,VALID,917.096,VALID,0,VALID,96.1524,VALID,0,VALID,20.6197,VALID,140,VALID,0.822917,
2004-04-20, 02:03:00,VALID,917.094,VALID,0,VALID,96.2401,VALID,-0.0169808,VALID,20.5874,VALID,135,VALID,0.510298,
2004-04-20, 02:04:01,VALID,917.124,VALID,0,VALID,96.3673,VALID,0,VALID,20.5491,VALID,135,VALID,0.846591,
2004-04-20, 02:05:00,VALID,917.141,VALID,0,VALID,96.5593,VALID,0,VALID,20.5034,VALID,133,VALID,0.760016,
2004-04-20, 02:06:01,VALID,917.161,VALID,0,VALID,96.7755,VALID,-0.0169808,VALID,20.4619,VALID,114,VALID,0.790838,
2004-04-20, 02:07:00,VALID,917.15,VALID,0,VALID,96.9738,VALID,-0.0339617,VALID,20.4232,VALID,98,VALID,0.486607,
2004-04-20, 02:08:00,VALID,917.125,VALID,0,VALID,97.3693,VALID,-0.0169808,VALID,20.4003,VALID,98,VALID,0.621271,
2004-04-20, 02:09:00,VALID,917.107,VALID,0,VALID,97.5359,VALID,0,VALID,20.3938,VALID,92,VALID,0.548958,
2004-04-20, 02:10:00,VALID,917.097,VALID,0,VALID,97.6211,VALID,0,VALID,20.3807,VALID,88,VALID,0.397852,
2004-04-20, 02:11:01,VALID,917.079,VALID,0,VALID,97.7228,VALID,0,VALID,20.374,VALID,92,VALID,0.632068,
2004-04-20, 02:12:00,VALID,917.091,VALID,0,VALID,97.8601,VALID,0,VALID,20.3715,VALID,97,VALID,0.761628,
2004-04-20, 02:13:01,VALID,917.092,VALID,0,VALID,97.6236,VALID,-0.0509425,VALID,20.3621,VALID,69,VALID,0.776526,
2004-04-20, 02:14:00,VALID,917.091,VALID,0,VALID,97.3947,VALID,-0.0169808,VALID,20.3074,VALID,55,VALID,1.01672,
2004-04-20, 02:15:00,VALID,917.074,VALID,0,VALID,97.6783,VALID,-0.0169808,VALID,20.2714,VALID,60,VALID,0.872222,
2004-04-20, 02:16:00,VALID,917.075,VALID,0,VALID,98.0649,VALID,0,VALID,20.2676,VALID,73,VALID,0.911044,
2004-04-20, 02:17:01,VALID,917.057,VALID,0,VALID,97.9898,VALID,-0.0509425,VALID,20.288,VALID,67,VALID,0.856399,
2004-04-20, 02:18:01,VALID,917.06,VALID,0,VALID,97.8067,VALID,-0.101885,VALID,20.2624,VALID,46,VALID,1.09588,
2004-04-20, 02:19:00,VALID,917.032,VALID,0,VALID,97.9949,VALID,-0.0849042,VALID,20.2463,VALID,44,VALID,0.830078,
2004-04-20, 02:20:00,VALID,917.038,VALID,0,VALID,98.1819,VALID,-0.101885,VALID,20.2488,VALID,47,VALID,0.635417,
2004-04-20, 02:21:00,VALID,917.04,VALID,0,VALID,98.1857,VALID,-0.0679233,VALID,20.2885,VALID,53,VALID,0.725852,
2004-04-20, 02:22:01,VALID,917.02,VALID,0,VALID,98.1221,VALID,-0.0849042,VALID,20.3303,VALID,58,VALID,0.519245,
2004-04-20, 02:23:01,VALID,917.011,VALID,0,VALID,97.8373,VALID,-0.0679233,VALID,20.3459,VALID,58,VALID,0.263808,
2004-04-20, 02:24:00,VALID,917.001,VALID,0,VALID,96.9865,VALID,-0.118866,VALID,20.2754,VALID,58,VALID,0.532885,
2004-04-20, 02:25:01,VALID,916.985,VALID,0,VALID,97.2727,VALID,-0.101885,VALID,20.2232,VALID,58,VALID,0.34003,
2004-04-20, 02:26:00,VALID,916.977,VALID,0,VALID,97.5664,VALID,-0.101885,VALID,20.2068,VALID,58,VALID,0.337891,
2004-04-20, 02:27:00,VALID,916.965,VALID,0,VALID,97.7546,VALID,-0.0679233,VALID,20.207,VALID,58,VALID,0.445122,
2004-04-20, 02:28:00,VALID,916.977,VALID,0,VALID,97.7673,VALID,-0.101885,VALID,20.2011,VALID,58,VALID,0.374112,
2004-04-20, 02:29:00,VALID,916.971,VALID,0,VALID,98.07,VALID,-0.0849042,VALID,20.1854,VALID,61,VALID,0.668605,
2004-04-20, 02:30:00,VALID,916.958,VALID,0,VALID,98.5659,VALID,-0.0509425,VALID,20.2433,VALID,86,VALID,0.955412,
2004-04-20, 02:31:01,VALID,916.959,VALID,0,VALID,98.2861,VALID,-0.0679233,VALID,20.3009,VALID,106,VALID,0.721701,
2004-04-20, 02:32:01,VALID,916.937,VALID,0,VALID,97.8245,VALID,-0.0849042,VALID,20.3139,VALID,111,VALID,0.314317,
2004-04-20, 02:33:00,VALID,916.927,VALID,0,VALID,97.6046,VALID,-0.101885,VALID,20.3015,VALID,111,VALID,0,
2004-04-20, 02:34:00,VALID,916.923,VALID,0,VALID,97.5219,VALID,-0.101885,VALID,20.2692,VALID,111,VALID,0.0012429,
2004-04-20, 02:35:01,VALID,916.926,VALID,0,VALID,97.5295,VALID,-0.101885,VALID,20.246,VALID,111,VALID,0,
2004-04-20, 02:36:01,VALID,916.919,VALID,0,VALID,97.7597,VALID,-0.101885,VALID,20.2528,VALID,111,VALID,0,
2004-04-20, 02:37:00,VALID,916.913,VALID,0,VALID,97.8156,VALID,-0.0849042,VALID,20.2654,VALID,111,VALID,0.109581,
2004-04-20, 02:38:00,VALID,916.891,VALID,0,VALID,97.7762,VALID,-0.0849042,VALID,20.2488,VALID,111,VALID,0.0648619,
2004-04-20, 02:39:00,VALID,916.902,VALID,0,VALID,97.6643,VALID,-0.0679233,VALID,20.2267,VALID,130,VALID,0.484035,
2004-04-20, 02:40:01,VALID,916.881,VALID,0,VALID,97.2549,VALID,-0.0679233,VALID,20.1688,VALID,159,VALID,0.833031,
2004-04-20, 02:41:00,VALID,916.9,VALID,0,VALID,97.5893,VALID,-0.0849042,VALID,20.1074,VALID,154,VALID,0.644245,
2004-04-20, 02:42:00,VALID,916.898,VALID,0,VALID,97.7966,VALID,-0.0679233,VALID,20.0788,VALID,117,VALID,1.06174,
2004-04-20, 02:43:00,VALID,916.901,VALID,0,VALID,98.0191,VALID,-0.101885,VALID,20.0307,VALID,95,VALID,0.955669,
2004-04-20, 02:44:00,VALID,916.895,VALID,0,VALID,98.6002,VALID,-0.0679233,VALID,20.0108,VALID,112,VALID,1.17028,
2004-04-20, 02:45:01,VALID,916.892,VALID,0,VALID,98.9766,VALID,-0.0679233,VALID,20.0202,VALID,97,VALID,1.09542,
2004-04-20, 02:46:01,VALID,916.886,VALID,0,VALID,98.8622,VALID,-0.0849042,VALID,19.9911,VALID,51,VALID,1.07213,
2004-04-20, 02:47:00,VALID,916.88,VALID,0,VALID,98.8049,VALID,-0.0679233,VALID,19.9492,VALID,51,VALID,0.882422,
2004-04-20, 02:48:00,VALID,916.893,VALID,0,VALID,98.8533,VALID,0.0169808,VALID,19.8992,VALID,38,VALID,0.954578,
2004-04-20, 02:49:01,VALID,916.895,VALID,0,VALID,98.9906,VALID,0,VALID,19.8667,VALID,34,VALID,0.91875,
2004-04-20, 02:50:00,VALID,916.913,VALID,0,VALID,99.0059,VALID,0,VALID,19.8316,VALID,31,VALID,1.1713,
2004-04-20, 02:51:00,VALID,916.914,VALID,0,VALID,99.2233,VALID,0.0339617,VALID,19.8115,VALID,34,VALID,1.08854,
2004-04-20, 02:52:00,VALID,916.929,VALID,0,VALID,99.2831,VALID,0.0679233,VALID,19.8187,VALID,67,VALID,1.06233,
2004-04-20, 02:53:00,VALID,916.922,VALID,0,VALID,99.4166,VALID,0.0169808,VALID,19.8254,VALID,94,VALID,0.876776,
2004-04-20, 02:54:01,VALID,916.911,VALID,0,VALID,99.4967,VALID,0.0679233,VALID,19.8249,VALID,109,VALID,1.25095,
2004-04-20, 02:55:00,VALID,916.905,VALID,0,VALID,99.615,VALID,0.0339617,VALID,19.8637,VALID,96,VALID,1.00337,
2004-04-20, 02:56:00,VALID,916.892,VALID,0,VALID,99.4535,VALID,0.0169808,VALID,19.8667,VALID,80,VALID,0.650799,
2004-04-20, 02:57:00,VALID,916.884,VALID,0,VALID,99.1139,VALID,0.0169808,VALID,19.8284,VALID,60,VALID,0.638086,
2004-04-20, 02:58:00,VALID,916.857,VALID,0,VALID,98.9232,VALID,0.0169808,VALID,19.7902,VALID,60,VALID,0.419876,
2004-04-20, 02:59:00,VALID,916.837,VALID,0,VALID,98.7503,VALID,0,VALID,19.7345,VALID,43,VALID,0.737367,
2004-04-20, 03:00:00,VALID,916.811,VALID,0,VALID,98.8406,VALID,0,VALID,19.699,VALID,32,VALID,0.664426,
2004-04-20, 03:01:00,VALID,916.797,VALID,0,VALID,99.1635,VALID,0.0169808,VALID,19.7253,VALID,32,VALID,0.666159,
2004-04-20, 03:02:00,VALID,916.784,VALID,0,VALID,99.1635,VALID,0,VALID,19.7092,VALID,56,VALID,0.768043,
2004-04-20, 03:03:00,VALID,916.766,VALID,0,VALID,99.5717,VALID,-0.0679233,VALID,19.7464,VALID,60,VALID,0.848656,
2004-04-20, 03:04:00,VALID,916.738,VALID,0,VALID,99.6989,VALID,-0.101885,VALID,19.7944,VALID,60,VALID,0.908008,
2004-04-20, 03:05:00,VALID,916.751,VALID,0,VALID,99.6506,VALID,-0.101885,VALID,19.8043,VALID,79,VALID,0.952615,
2004-04-20, 03:06:01,VALID,916.754,VALID,0,VALID,99.6442,VALID,-0.101885,VALID,19.8361,VALID,124,VALID,1.57794,
2004-04-20, 03:07:00,VALID,916.756,VALID,0,VALID,99.442,VALID,-0.0849042,VALID,19.8237,VALID,133,VALID,1.43958,
2004-04-20, 03:08:01,VALID,916.753,VALID,0,VALID,99.5488,VALID,-0.101885,VALID,19.8172,VALID,141,VALID,1.05915,
2004-04-20, 03:09:00,VALID,916.748,VALID,0,VALID,99.4713,VALID,-0.101885,VALID,19.814,VALID,137,VALID,1.10863,
2004-04-20, 03:10:01,VALID,916.747,VALID,0,VALID,99.4814,VALID,-0.0849042,VALID,19.7914,VALID,132,VALID,1.03162,
2004-04-20, 03:11:00,VALID,916.745,VALID,0,VALID,99.3937,VALID,-0.0849042,VALID,19.7591,VALID,126,VALID,0.857599,
2004-04-20, 03:12:00,VALID,916.754,VALID,0,VALID,99.3034,VALID,-0.0509425,VALID,19.7231,VALID,92,VALID,0.822917,
2004-04-20, 03:13:00,VALID,916.742,VALID,0,VALID,99.8459,VALID,-0.0679233,VALID,19.736,VALID,99,VALID,0.723772,
2004-04-20, 03:14:01,VALID,916.744,VALID,0,VALID,99.9939,VALID,-0.0509425,VALID,19.8302,VALID,120,VALID,0.511242,
2004-04-20, 03:15:00,VALID,916.76,VALID,0,VALID,99.7459,VALID,-0.0509425,VALID,19.8264,VALID,132,VALID,0.459736,
2004-04-20, 03:16:01,VALID,916.78,VALID,0,VALID,99.5616,VALID,-0.0849042,VALID,19.7979,VALID,140,VALID,0.941584,
2004-04-20, 03:17:01,VALID,916.797,VALID,0,VALID,99.587,VALID,-0.0509425,VALID,19.7586,VALID,132,VALID,1.55741,
2004-04-20, 03:18:01,VALID,916.846,VALID,0,VALID,99.7663,VALID,0.0339617,VALID,19.777,VALID,133,VALID,1.63663,
2004-04-20, 03:19:01,VALID,916.886,VALID,0,VALID,99.868,VALID,0.0509425,VALID,19.8026,VALID,138,VALID,1.45201,
2004-04-20, 03:20:00,VALID,916.922,VALID,0,VALID,99.9163,VALID,0.0509425,VALID,19.8577,VALID,123,VALID,1.0957,
2004-04-20, 03:21:00,VALID,916.94,VALID,0,VALID,99.8693,VALID,0,VALID,19.8769,VALID,123,VALID,1.06174,
2004-04-20, 03:22:01,VALID,916.944,VALID,0,VALID,99.9631,VALID,0.0339617,VALID,19.9126,VALID,123,VALID,0.860828,
2004-04-20, 03:23:00,VALID,916.931,VALID,0,VALID,99.8044,VALID,0,VALID,19.9514,VALID,120,VALID,0.58718,
2004-04-20, 03:24:00,VALID,916.926,VALID,0,VALID,99.5908,VALID,0.0169808,VALID,19.9583,VALID,130,VALID,0.643973,
2004-04-20, 03:25:00,VALID,916.922,VALID,0,VALID,99.5094,VALID,0.0169808,VALID,19.9487,VALID,143,VALID,0.814977,
2004-04-20, 03:26:00,VALID,916.926,VALID,0,VALID,99.5501,VALID,0.0169808,VALID,19.9713,VALID,143,VALID,0.714311,
2004-04-20, 03:27:01,VALID,916.94,VALID,0,VALID,99.4547,VALID,0.0339617,VALID,19.9673,VALID,141,VALID,0.623365,
2004-04-20, 03:28:00,VALID,916.921,VALID,0,VALID,99.325,VALID,0.0339617,VALID,19.964,VALID,134,VALID,0.400174,
2004-04-20, 03:29:00,VALID,916.898,VALID,0,VALID,99.4903,VALID,0.0169808,VALID,19.9807,VALID,60,VALID,0.444949,
2004-04-20, 03:30:00,VALID,916.861,VALID,0,VALID,98.983,VALID,0,VALID,19.9511,VALID,40,VALID,0,
2004-04-20, 03:31:00,VALID,916.818,VALID,0,VALID,98.9804,VALID,0.0339617,VALID,19.9581,VALID,40,VALID,0,
2004-04-20, 03:32:00,VALID,916.792,VALID,0,VALID,98.9753,VALID,0,VALID,19.9775,VALID,40,VALID,0,
2004-04-20, 03:33:01,VALID,916.772,VALID,0,VALID,98.9537,VALID,0,VALID,19.9904,VALID,31,VALID,0.320486,
2004-04-20, 03:34:01,VALID,916.776,VALID,0,VALID,98.9703,VALID,0.0169808,VALID,20.0038,VALID,27,VALID,0.131641,